Location: Devore Heights
(34.2372°N, 117.4156°W)
Time: 01:10:25
(UTC+00:00)

Vanguard 2 Rocket - Pass Details

Date: 19 September 2024
Orbit: 553 x 3298 km, 32.9° (Epoch: 09 October)

Event Time Altitude Azimuth Distance (km) Brightness Sun altitude
Exits shadow 11:22:09 40° 270° (W) 2,897 8.9 -27.8°
Maximum altitude 11:28:29 80° 191° (S) 2,567 8.9 -26.6°
Drops below altitude 10° 11:47:42 10° 108° (ESE) 6,191 11.8 -22.8°
Sets 11:52:44 0° 107° (ESE) 7,275 12.4 -21.8°
